Year,Month,Day,Hour,Minute,Value (Times are PST for temperature in C)
2006,07,24,00,00,20.50
2006,07,24,00,01,20.50
2006,07,24,00,02,20.50
2006,07,24,00,03,20.40
2006,07,24,00,04,20.40
2006,07,24,00,05,20.40
2006,07,24,00,06,20.40
2006,07,24,00,07,20.30
2006,07,24,00,08,20.30
2006,07,24,00,09,20.30
2006,07,24,00,10,20.20
2006,07,24,00,11,20.20
2006,07,24,00,12,20.20
2006,07,24,00,13,20.20
2006,07,24,00,14,20.20
2006,07,24,00,15,20.20
2006,07,24,00,16,20.10
2006,07,24,00,17,20.10
2006,07,24,00,18,20.00
2006,07,24,00,19,19.90
2006,07,24,00,20,19.90
2006,07,24,00,21,19.90
2006,07,24,00,22,19.90
2006,07,24,00,23,19.90
2006,07,24,00,24,19.90
2006,07,24,00,25,19.90
2006,07,24,00,26,19.90
2006,07,24,00,27,19.90
2006,07,24,00,28,19.90
2006,07,24,00,29,19.90
2006,07,24,00,30,19.80
2006,07,24,00,31,19.80
2006,07,24,00,32,19.80
2006,07,24,00,33,19.80
2006,07,24,00,34,19.80
2006,07,24,00,35,19.80
2006,07,24,00,36,19.80
2006,07,24,00,37,19.80
2006,07,24,00,38,19.80
2006,07,24,00,39,19.70
2006,07,24,00,40,19.70
2006,07,24,00,41,19.70
2006,07,24,00,42,19.70
2006,07,24,00,43,19.70
2006,07,24,00,44,19.70
2006,07,24,00,45,19.70
2006,07,24,00,46,19.70
2006,07,24,00,47,19.70
2006,07,24,00,48,19.60
2006,07,24,00,49,19.60
2006,07,24,00,50,19.60
2006,07,24,00,51,19.60
2006,07,24,00,52,19.60
2006,07,24,00,53,19.60
2006,07,24,00,54,19.60
2006,07,24,00,55,19.50
2006,07,24,00,56,19.50
2006,07,24,00,57,19.50
2006,07,24,00,58,19.50
2006,07,24,00,59,19.50
2006,07,24,01,00,19.50
2006,07,24,01,01,19.50
2006,07,24,01,02,19.50
2006,07,24,01,03,19.50
2006,07,24,01,04,19.40
2006,07,24,01,05,19.40
2006,07,24,01,06,19.40
2006,07,24,01,07,19.40
2006,07,24,01,08,19.40
2006,07,24,01,09,19.30
2006,07,24,01,10,19.30
2006,07,24,01,11,19.30
2006,07,24,01,12,19.30
2006,07,24,01,13,19.30
2006,07,24,01,14,19.30
2006,07,24,01,15,19.30
2006,07,24,01,16,19.30
2006,07,24,01,17,19.20
2006,07,24,01,18,19.20
2006,07,24,01,19,19.20
2006,07,24,01,20,19.20
2006,07,24,01,21,19.20
2006,07,24,01,22,19.30
2006,07,24,01,23,19.30
2006,07,24,01,24,19.30
2006,07,24,01,25,19.30
2006,07,24,01,26,19.30
2006,07,24,01,27,19.30
2006,07,24,01,28,19.30
2006,07,24,01,29,19.30
2006,07,24,01,30,19.30
2006,07,24,01,31,19.30
2006,07,24,01,32,19.30
2006,07,24,01,33,19.30
2006,07,24,01,34,19.30
2006,07,24,01,35,19.30
2006,07,24,01,36,19.30
2006,07,24,01,37,19.30
2006,07,24,01,38,19.30
2006,07,24,01,39,19.30
2006,07,24,01,40,19.30
2006,07,24,01,41,19.30
2006,07,24,01,42,19.30
2006,07,24,01,43,19.30
2006,07,24,01,44,19.30
2006,07,24,01,45,19.20
2006,07,24,01,46,19.20
2006,07,24,01,47,19.20
2006,07,24,01,48,19.30
2006,07,24,01,49,19.30
2006,07,24,01,50,19.30
2006,07,24,01,51,19.30
2006,07,24,01,52,19.40
2006,07,24,01,53,19.40
2006,07,24,01,54,19.40
2006,07,24,01,55,19.40
2006,07,24,01,56,19.40
2006,07,24,01,57,19.50
2006,07,24,01,58,19.50
2006,07,24,01,59,19.50
2006,07,24,02,00,19.50
2006,07,24,02,01,19.40
2006,07,24,02,02,19.40
2006,07,24,02,03,19.40
2006,07,24,02,04,19.40
2006,07,24,02,05,19.40
2006,07,24,02,06,19.40
2006,07,24,02,07,19.40
2006,07,24,02,08,19.50
2006,07,24,02,09,19.50
2006,07,24,02,10,19.50
2006,07,24,02,11,19.50
2006,07,24,02,12,19.50
2006,07,24,02,13,19.60
2006,07,24,02,14,19.60
2006,07,24,02,15,19.60
2006,07,24,02,16,19.60
2006,07,24,02,17,19.60
2006,07,24,02,18,19.60
2006,07,24,02,19,19.60
2006,07,24,02,20,19.50
2006,07,24,02,21,19.50
2006,07,24,02,22,19.50
2006,07,24,02,23,19.50
2006,07,24,02,24,19.50
2006,07,24,02,25,19.50
2006,07,24,02,26,19.50
2006,07,24,02,27,19.50
2006,07,24,02,28,19.50
2006,07,24,02,29,19.50
2006,07,24,02,30,19.50
2006,07,24,02,31,19.50
2006,07,24,02,32,19.50
2006,07,24,02,33,19.50
2006,07,24,02,34,19.40
2006,07,24,02,35,19.40
2006,07,24,02,36,19.40
2006,07,24,02,37,19.40
2006,07,24,02,38,19.40
2006,07,24,02,39,19.40
2006,07,24,02,40,19.40
2006,07,24,02,41,19.40
2006,07,24,02,42,19.40
2006,07,24,02,43,19.40
2006,07,24,02,44,19.50
2006,07,24,02,45,19.50
2006,07,24,02,46,19.50
2006,07,24,02,47,19.40
2006,07,24,02,48,19.40
2006,07,24,02,49,19.40
2006,07,24,02,50,19.40
2006,07,24,02,51,19.40
2006,07,24,02,52,19.30
2006,07,24,02,53,19.30
2006,07,24,02,54,19.30
2006,07,24,02,55,19.20
2006,07,24,02,56,19.20
2006,07,24,02,57,19.20
2006,07,24,02,58,19.10
2006,07,24,02,59,19.10
2006,07,24,03,00,19.10
2006,07,24,03,01,19.10
2006,07,24,03,02,19.10
2006,07,24,03,03,18.90
2006,07,24,03,04,18.90
2006,07,24,03,05,18.90
2006,07,24,03,06,18.90
2006,07,24,03,07,18.90
2006,07,24,03,08,18.90
2006,07,24,03,09,18.90
2006,07,24,03,10,18.90
2006,07,24,03,11,18.90
2006,07,24,03,12,18.90
2006,07,24,03,13,18.80
2006,07,24,03,14,18.80
2006,07,24,03,15,18.80
2006,07,24,03,16,18.80
2006,07,24,03,17,18.70
2006,07,24,03,18,18.70
2006,07,24,03,19,18.70
2006,07,24,03,20,18.60
2006,07,24,03,21,18.60
2006,07,24,03,22,18.60
2006,07,24,03,23,18.60
2006,07,24,03,24,18.60
2006,07,24,03,25,18.50
2006,07,24,03,26,18.50
2006,07,24,03,27,18.50
2006,07,24,03,28,18.50
2006,07,24,03,29,18.50
2006,07,24,03,30,18.50
2006,07,24,03,31,18.50
2006,07,24,03,32,18.40
2006,07,24,03,33,18.40
2006,07,24,03,34,18.40
2006,07,24,03,35,18.40
2006,07,24,03,36,18.40
2006,07,24,03,37,18.30
2006,07,24,03,38,18.30
2006,07,24,03,39,18.30
2006,07,24,03,40,18.30
2006,07,24,03,41,18.30
2006,07,24,03,42,18.30
2006,07,24,03,43,18.30
2006,07,24,03,44,18.30
2006,07,24,03,45,18.30
2006,07,24,03,46,18.30
2006,07,24,03,47,18.30
2006,07,24,03,48,18.40
2006,07,24,03,49,18.40
2006,07,24,03,50,18.40
2006,07,24,03,51,18.40
2006,07,24,03,52,18.40
2006,07,24,03,53,18.40
2006,07,24,03,54,18.40
2006,07,24,03,55,18.40
2006,07,24,03,56,18.40
2006,07,24,03,57,18.40
2006,07,24,03,58,18.40
2006,07,24,03,59,18.40
2006,07,24,04,00,18.40
2006,07,24,04,01,18.40
2006,07,24,04,02,18.40
2006,07,24,04,03,18.30
2006,07,24,04,04,18.30
2006,07,24,04,05,18.30
2006,07,24,04,06,18.30
2006,07,24,04,07,18.20
2006,07,24,04,08,18.20
2006,07,24,04,09,18.20
2006,07,24,04,10,18.20
2006,07,24,04,11,18.20
2006,07,24,04,12,18.20
2006,07,24,04,13,18.20
2006,07,24,04,14,18.20
2006,07,24,04,15,18.10
2006,07,24,04,16,18.10
2006,07,24,04,17,18.10
2006,07,24,04,18,18.10
2006,07,24,04,19,18.10
2006,07,24,04,20,18.10
2006,07,24,04,21,18.10
2006,07,24,04,22,18.10
2006,07,24,04,23,18.10
2006,07,24,04,24,18.10
2006,07,24,04,25,18.10
2006,07,24,04,26,18.10
2006,07,24,04,27,18.10
2006,07,24,04,28,18.10
2006,07,24,04,29,18.10
2006,07,24,04,30,17.90
2006,07,24,04,31,17.90
2006,07,24,04,32,17.90
2006,07,24,04,33,17.90
2006,07,24,04,34,17.90
2006,07,24,04,35,17.90
2006,07,24,04,36,17.90
2006,07,24,04,37,17.80
2006,07,24,04,38,17.80
2006,07,24,04,39,17.80
2006,07,24,04,40,17.80
2006,07,24,04,41,17.80
2006,07,24,04,42,17.70
2006,07,24,04,43,17.70
2006,07,24,04,44,17.70
2006,07,24,04,45,17.70
2006,07,24,04,46,17.70
2006,07,24,04,47,17.70
2006,07,24,04,48,17.70
2006,07,24,04,49,17.70
2006,07,24,04,50,17.70
2006,07,24,04,51,17.70
2006,07,24,04,52,17.70
2006,07,24,04,53,17.70
2006,07,24,04,54,17.70
2006,07,24,04,55,17.70
2006,07,24,04,56,17.80
2006,07,24,04,57,17.80
2006,07,24,04,58,17.80
2006,07,24,04,59,17.80
2006,07,24,05,00,17.80
2006,07,24,05,01,17.80
2006,07,24,05,02,17.80
2006,07,24,05,03,17.80
2006,07,24,05,04,17.80
2006,07,24,05,05,17.80
2006,07,24,05,06,17.80
2006,07,24,05,07,17.70
2006,07,24,05,08,17.70
2006,07,24,05,09,17.70
2006,07,24,05,10,17.70
2006,07,24,05,11,17.70
2006,07,24,05,12,17.70
2006,07,24,05,13,17.70
2006,07,24,05,14,17.60
2006,07,24,05,15,17.60
2006,07,24,05,16,17.60
2006,07,24,05,17,17.60
2006,07,24,05,18,17.60
2006,07,24,05,19,17.60
2006,07,24,05,20,17.60
2006,07,24,05,21,17.50
2006,07,24,05,22,17.50
2006,07,24,05,23,17.50
2006,07,24,05,24,17.50
2006,07,24,05,25,17.50
2006,07,24,05,26,17.50
2006,07,24,05,27,17.50
2006,07,24,05,28,17.40
2006,07,24,05,29,17.40
2006,07,24,05,30,17.40
2006,07,24,05,31,17.40
2006,07,24,05,32,17.40
2006,07,24,05,33,17.40
2006,07,24,05,34,17.40
2006,07,24,05,35,17.40
2006,07,24,05,36,17.40
2006,07,24,05,37,17.30
2006,07,24,05,38,17.30
2006,07,24,05,39,17.30
2006,07,24,05,40,17.30
2006,07,24,05,41,17.30
2006,07,24,05,42,17.30
2006,07,24,05,43,17.30
2006,07,24,05,44,17.30
2006,07,24,05,45,17.30
2006,07,24,05,46,17.30
2006,07,24,05,47,17.20
2006,07,24,05,48,17.20
2006,07,24,05,49,17.20
2006,07,24,05,50,17.20
2006,07,24,05,51,17.20
2006,07,24,05,52,17.10
2006,07,24,05,53,17.10
2006,07,24,05,54,17.10
2006,07,24,05,55,17.10
2006,07,24,05,56,17.10
2006,07,24,05,57,17.10
2006,07,24,05,58,17.10
2006,07,24,05,59,17.10
2006,07,24,06,00,17.10
2006,07,24,06,01,17.10
2006,07,24,06,02,17.10
2006,07,24,06,03,17.10
2006,07,24,06,04,17.10
2006,07,24,06,05,17.10
2006,07,24,06,06,17.10
2006,07,24,06,07,17.10
2006,07,24,06,08,17.10
2006,07,24,06,09,17.10
2006,07,24,06,10,17.10
2006,07,24,06,11,17.10
2006,07,24,06,12,17.10
2006,07,24,06,13,17.10
2006,07,24,06,14,17.10
2006,07,24,06,15,17.10
2006,07,24,06,16,17.10
2006,07,24,06,17,17.10
2006,07,24,06,18,17.10
2006,07,24,06,19,17.20
2006,07,24,06,20,17.20
2006,07,24,06,21,17.20
2006,07,24,06,22,17.20
2006,07,24,06,23,17.20
2006,07,24,06,24,17.20
2006,07,24,06,25,17.20
2006,07,24,06,26,17.20
2006,07,24,06,27,17.20
2006,07,24,06,28,17.30
2006,07,24,06,29,17.30
2006,07,24,06,30,17.30
2006,07,24,06,31,17.30
2006,07,24,06,32,17.30
2006,07,24,06,33,17.30
2006,07,24,06,34,17.30
2006,07,24,06,35,17.30
2006,07,24,06,36,17.30
2006,07,24,06,37,17.30
2006,07,24,06,38,17.30
2006,07,24,06,39,17.30
2006,07,24,06,40,17.30
2006,07,24,06,41,17.30
2006,07,24,06,42,17.30
2006,07,24,06,43,17.30
2006,07,24,06,44,17.30
2006,07,24,06,45,17.30
2006,07,24,06,46,17.30
2006,07,24,06,47,17.30
2006,07,24,06,48,17.30
2006,07,24,06,49,17.30
2006,07,24,06,50,17.30
2006,07,24,06,51,17.30
2006,07,24,06,52,17.30
2006,07,24,06,53,17.40
2006,07,24,06,54,17.50
2006,07,24,06,55,17.50
2006,07,24,06,56,17.70
2006,07,24,06,57,17.90
2006,07,24,06,58,18.00
2006,07,24,06,59,18.20
2006,07,24,07,00,18.20
2006,07,24,07,01,18.20
2006,07,24,07,02,18.20
2006,07,24,07,03,18.30
2006,07,24,07,04,18.40
2006,07,24,07,05,18.50
2006,07,24,07,06,18.60
2006,07,24,07,07,18.70
2006,07,24,07,08,18.70
2006,07,24,07,09,18.70
2006,07,24,07,10,18.70
2006,07,24,07,11,18.80
2006,07,24,07,12,18.80
2006,07,24,07,13,18.80
2006,07,24,07,14,18.80
2006,07,24,07,15,18.90
2006,07,24,07,16,19.00
2006,07,24,07,17,19.10
2006,07,24,07,18,19.20
2006,07,24,07,19,19.30
2006,07,24,07,20,19.40
2006,07,24,07,21,19.40
2006,07,24,07,22,19.50
2006,07,24,07,23,19.60
2006,07,24,07,24,19.70
2006,07,24,07,25,19.90
2006,07,24,07,26,20.00
2006,07,24,07,27,20.20
2006,07,24,07,28,20.30
2006,07,24,07,29,20.40
2006,07,24,07,30,20.50
2006,07,24,07,31,20.60
2006,07,24,07,32,20.70
2006,07,24,07,33,20.80
2006,07,24,07,34,21.00
2006,07,24,07,35,21.10
2006,07,24,07,36,21.20
2006,07,24,07,37,21.30
2006,07,24,07,38,21.40
2006,07,24,07,39,21.50
2006,07,24,07,40,21.60
2006,07,24,07,41,21.60
2006,07,24,07,42,21.70
2006,07,24,07,43,21.70
2006,07,24,07,44,21.70
2006,07,24,07,45,21.70
2006,07,24,07,46,21.70
2006,07,24,07,47,21.70
2006,07,24,07,48,21.70
2006,07,24,07,49,21.70
2006,07,24,07,50,21.80
2006,07,24,07,51,21.80
2006,07,24,07,52,21.80
2006,07,24,07,53,21.70
2006,07,24,07,54,21.60
2006,07,24,07,55,21.60
2006,07,24,07,56,21.60
2006,07,24,07,57,21.60
2006,07,24,07,58,21.60
2006,07,24,07,59,21.60
2006,07,24,08,00,21.70
2006,07,24,08,01,21.80
2006,07,24,08,02,21.90
2006,07,24,08,03,22.00
2006,07,24,08,04,22.00
2006,07,24,08,05,22.10
2006,07,24,08,06,22.20
2006,07,24,08,07,22.30
2006,07,24,08,08,22.30
2006,07,24,08,09,22.40
2006,07,24,08,10,22.50
2006,07,24,08,11,22.50
2006,07,24,08,12,22.60
2006,07,24,08,13,22.60
2006,07,24,08,14,22.70
2006,07,24,08,15,22.70
2006,07,24,08,16,22.70
2006,07,24,08,17,22.80
2006,07,24,08,18,22.80
2006,07,24,08,19,22.90
2006,07,24,08,20,22.90
2006,07,24,08,21,23.00
2006,07,24,08,22,23.10
2006,07,24,08,23,23.20
2006,07,24,08,24,23.30
2006,07,24,08,25,23.30
2006,07,24,08,26,23.30
2006,07,24,08,27,23.40
2006,07,24,08,28,23.50
2006,07,24,08,29,23.60
2006,07,24,08,30,23.60
2006,07,24,08,31,23.70
2006,07,24,08,32,23.70
2006,07,24,08,33,23.80
2006,07,24,08,34,23.80
2006,07,24,08,35,23.90
2006,07,24,08,36,23.90
2006,07,24,08,37,23.90
2006,07,24,08,38,24.00
2006,07,24,08,39,24.00
2006,07,24,08,40,24.10
2006,07,24,08,41,24.00
2006,07,24,08,42,24.10
2006,07,24,08,43,24.10
2006,07,24,08,44,24.10
2006,07,24,08,45,24.10
2006,07,24,08,46,24.20
2006,07,24,08,47,24.20
2006,07,24,08,48,24.20
2006,07,24,08,49,24.20
2006,07,24,08,50,24.20
2006,07,24,08,51,24.30
2006,07,24,08,52,24.30
2006,07,24,08,53,24.30
2006,07,24,08,54,24.40
2006,07,24,08,55,24.40
2006,07,24,08,56,24.50
2006,07,24,08,57,24.50
2006,07,24,08,58,24.60
2006,07,24,08,59,24.60
2006,07,24,09,00,24.60
2006,07,24,09,01,24.60
2006,07,24,09,02,24.70
2006,07,24,09,03,24.70
2006,07,24,09,04,24.80
2006,07,24,09,05,24.80
2006,07,24,09,06,24.80
2006,07,24,09,07,24.80
2006,07,24,09,08,24.80
2006,07,24,09,09,24.80
2006,07,24,09,10,24.80
2006,07,24,09,11,24.80
2006,07,24,09,12,24.80
2006,07,24,09,13,24.80
2006,07,24,09,14,24.80
2006,07,24,09,15,24.90
2006,07,24,09,16,24.80
2006,07,24,09,17,24.80
2006,07,24,09,18,24.80
2006,07,24,09,19,24.70
2006,07,24,09,20,24.70
2006,07,24,09,21,24.70
2006,07,24,09,22,24.80
2006,07,24,09,23,24.90
2006,07,24,09,24,24.90
2006,07,24,09,25,24.90
2006,07,24,09,26,24.90
2006,07,24,09,27,24.90
2006,07,24,09,28,25.00
2006,07,24,09,29,25.00
2006,07,24,09,30,25.00
2006,07,24,09,31,25.00
2006,07,24,09,32,25.00
2006,07,24,09,33,25.10
2006,07,24,09,34,25.20
2006,07,24,09,35,25.30
2006,07,24,09,36,25.30
2006,07,24,09,37,25.40
2006,07,24,09,38,25.30
2006,07,24,09,39,25.40
2006,07,24,09,40,25.40
2006,07,24,09,41,25.50
2006,07,24,09,42,25.60
2006,07,24,09,43,25.60
2006,07,24,09,44,25.70
2006,07,24,09,45,25.80
2006,07,24,09,46,25.90
2006,07,24,09,47,25.90
2006,07,24,09,48,25.80
2006,07,24,09,49,25.90
2006,07,24,09,50,25.90
2006,07,24,09,51,26.00
2006,07,24,09,52,26.10
2006,07,24,09,53,26.10
2006,07,24,09,54,26.20
2006,07,24,09,55,26.20
2006,07,24,09,56,26.30
2006,07,24,09,57,26.40
2006,07,24,09,58,26.30
2006,07,24,09,59,26.30
2006,07,24,10,00,26.20
2006,07,24,10,01,26.20
2006,07,24,10,02,26.10
2006,07,24,10,03,26.20
2006,07,24,10,04,26.20
2006,07,24,10,05,26.30
2006,07,24,10,06,26.30
2006,07,24,10,07,26.20
2006,07,24,10,08,26.30
2006,07,24,10,09,26.30
2006,07,24,10,10,26.40
2006,07,24,10,11,26.50
2006,07,24,10,12,26.60
2006,07,24,10,13,26.60
2006,07,24,10,14,26.70
2006,07,24,10,15,26.80
2006,07,24,10,16,26.90
2006,07,24,10,17,26.90
2006,07,24,10,18,27.00
2006,07,24,10,19,27.10
2006,07,24,10,20,27.10
2006,07,24,10,21,27.10
2006,07,24,10,22,27.10
2006,07,24,10,23,27.10
2006,07,24,10,24,27.00
2006,07,24,10,25,27.10
2006,07,24,10,26,27.20
2006,07,24,10,27,27.30
2006,07,24,10,28,27.20
2006,07,24,10,29,27.20
2006,07,24,10,30,27.10
2006,07,24,10,31,27.20
2006,07,24,10,32,27.30
2006,07,24,10,33,27.30
2006,07,24,10,34,27.40
2006,07,24,10,35,27.60
2006,07,24,10,36,27.70
2006,07,24,10,37,27.80
2006,07,24,10,38,27.80
2006,07,24,10,39,27.80
2006,07,24,10,40,27.80
2006,07,24,10,41,27.70
2006,07,24,10,42,27.70
2006,07,24,10,43,27.70
2006,07,24,10,44,27.60
2006,07,24,10,45,27.70
2006,07,24,10,46,27.70
2006,07,24,10,47,27.70
2006,07,24,10,48,27.60
2006,07,24,10,49,27.70
2006,07,24,10,50,27.70
2006,07,24,10,51,27.80
2006,07,24,10,52,27.70
2006,07,24,10,53,27.70
2006,07,24,10,54,27.60
2006,07,24,10,55,27.60
2006,07,24,10,56,27.70
2006,07,24,10,57,27.80
2006,07,24,10,58,27.90
2006,07,24,10,59,27.90
2006,07,24,11,00,28.00
2006,07,24,11,01,28.10
2006,07,24,11,02,28.20
2006,07,24,11,03,28.20
2006,07,24,11,04,28.30
2006,07,24,11,05,28.40
2006,07,24,11,06,28.40
2006,07,24,11,07,28.50
2006,07,24,11,08,28.70
2006,07,24,11,09,28.70
2006,07,24,11,10,28.80
2006,07,24,11,11,28.90
2006,07,24,11,12,28.90
2006,07,24,11,13,28.90
2006,07,24,11,14,28.80
2006,07,24,11,15,28.80
2006,07,24,11,16,28.80
2006,07,24,11,17,28.80
2006,07,24,11,18,28.70
2006,07,24,11,19,28.70
2006,07,24,11,20,28.70
2006,07,24,11,21,28.80
2006,07,24,11,22,28.70
2006,07,24,11,23,28.70
2006,07,24,11,24,28.80
2006,07,24,11,25,28.80
2006,07,24,11,26,28.70
2006,07,24,11,27,28.70
2006,07,24,11,28,28.70
2006,07,24,11,29,28.80
2006,07,24,11,30,28.90
2006,07,24,11,31,28.90
2006,07,24,11,32,29.10
2006,07,24,11,33,29.30
2006,07,24,11,34,29.50
2006,07,24,11,35,29.60
2006,07,24,11,36,29.60
2006,07,24,11,37,29.70
2006,07,24,11,38,29.80
2006,07,24,11,39,29.80
2006,07,24,11,40,29.70
2006,07,24,11,41,29.60
2006,07,24,11,42,29.70
2006,07,24,11,43,29.70
2006,07,24,11,44,29.80
2006,07,24,11,45,29.90
2006,07,24,11,46,29.90
2006,07,24,11,47,29.80
2006,07,24,11,48,29.80
2006,07,24,11,49,29.80
2006,07,24,11,50,29.80
2006,07,24,11,51,29.80
2006,07,24,11,52,29.60
2006,07,24,11,53,29.60
2006,07,24,11,54,29.70
2006,07,24,11,55,29.60
2006,07,24,11,56,29.60
2006,07,24,11,57,29.40
2006,07,24,11,58,29.40
2006,07,24,11,59,29.30
2006,07,24,12,00,29.30
2006,07,24,12,01,29.20
2006,07,24,12,02,29.20
2006,07,24,12,03,29.40
2006,07,24,12,04,29.40
2006,07,24,12,05,29.60
2006,07,24,12,06,29.80
2006,07,24,12,07,29.90
2006,07,24,12,08,30.00
2006,07,24,12,09,30.10
2006,07,24,12,10,30.00
2006,07,24,12,11,30.00
2006,07,24,12,12,30.10
2006,07,24,12,13,30.10
2006,07,24,12,14,30.10
2006,07,24,12,15,30.20
2006,07,24,12,16,30.20
2006,07,24,12,17,30.30
2006,07,24,12,18,30.40
2006,07,24,12,19,30.50
2006,07,24,12,20,30.50
2006,07,24,12,21,30.50
2006,07,24,12,22,30.40
2006,07,24,12,23,30.40
2006,07,24,12,24,30.30
2006,07,24,12,25,30.30
2006,07,24,12,26,30.10
2006,07,24,12,27,30.10
2006,07,24,12,28,29.90
2006,07,24,12,29,30.00
2006,07,24,12,30,30.20
2006,07,24,12,31,30.30
2006,07,24,12,32,30.30
2006,07,24,12,33,30.40
2006,07,24,12,34,30.40
2006,07,24,12,35,30.50
2006,07,24,12,36,30.50
2006,07,24,12,37,30.60
2006,07,24,12,38,30.70
2006,07,24,12,39,30.70
2006,07,24,12,40,30.70
2006,07,24,12,41,30.60
2006,07,24,12,42,30.60
2006,07,24,12,43,30.60
2006,07,24,12,44,30.60
2006,07,24,12,45,30.60
2006,07,24,12,46,30.60
2006,07,24,12,47,30.60
2006,07,24,12,48,30.60
2006,07,24,12,49,30.60
2006,07,24,12,50,30.40
2006,07,24,12,51,30.40
2006,07,24,12,52,30.20
2006,07,24,12,53,30.30
2006,07,24,12,54,30.30
2006,07,24,12,55,30.40
2006,07,24,12,56,30.30
2006,07,24,12,57,30.20
2006,07,24,12,58,30.10
2006,07,24,12,59,30.10
2006,07,24,13,00,30.10
2006,07,24,13,01,30.10
2006,07,24,13,02,30.10
2006,07,24,13,03,30.10
2006,07,24,13,04,30.30
2006,07,24,13,05,30.30
2006,07,24,13,06,30.30
2006,07,24,13,07,30.30
2006,07,24,13,08,30.20
2006,07,24,13,09,30.10
2006,07,24,13,10,30.00
2006,07,24,13,11,30.00
2006,07,24,13,12,30.00
2006,07,24,13,13,29.80
2006,07,24,13,14,29.80
2006,07,24,13,15,29.80
2006,07,24,13,16,29.80
2006,07,24,13,17,29.70
2006,07,24,13,18,29.70
2006,07,24,13,19,29.70
2006,07,24,13,20,29.50
2006,07,24,13,21,29.50
2006,07,24,13,22,29.50
2006,07,24,13,23,29.50
2006,07,24,13,24,29.80
2006,07,24,13,25,29.80
2006,07,24,13,26,29.80
2006,07,24,13,27,29.70
2006,07,24,13,28,29.50
2006,07,24,13,29,29.60
2006,07,24,13,30,29.60
2006,07,24,13,31,29.70
2006,07,24,13,32,29.80
2006,07,24,13,33,29.90
2006,07,24,13,34,30.10
2006,07,24,13,35,30.20
2006,07,24,13,36,30.40
2006,07,24,13,37,30.60
2006,07,24,13,38,30.60
2006,07,24,13,39,30.60
2006,07,24,13,40,30.60
2006,07,24,13,41,30.50
2006,07,24,13,42,30.30
2006,07,24,13,43,30.40
2006,07,24,13,44,30.60
2006,07,24,13,45,30.70
2006,07,24,13,46,30.70
2006,07,24,13,47,30.80
2006,07,24,13,48,30.90
2006,07,24,13,49,30.80
2006,07,24,13,50,30.80
2006,07,24,13,51,30.80
2006,07,24,13,52,30.70
2006,07,24,13,53,30.60
2006,07,24,13,54,30.70
2006,07,24,13,55,30.60
2006,07,24,13,56,30.60
2006,07,24,13,57,30.60
2006,07,24,13,58,30.40
2006,07,24,13,59,30.40
2006,07,24,14,00,30.30
2006,07,24,14,01,30.20
2006,07,24,14,02,30.20
2006,07,24,14,03,30.20
2006,07,24,14,04,30.20
2006,07,24,14,05,30.10
2006,07,24,14,06,30.00
2006,07,24,14,07,29.80
2006,07,24,14,08,29.70
2006,07,24,14,09,29.60
2006,07,24,14,10,29.60
2006,07,24,14,11,29.60
2006,07,24,14,12,29.60
2006,07,24,14,13,29.50
2006,07,24,14,14,29.50
2006,07,24,14,15,29.40
2006,07,24,14,16,29.50
2006,07,24,14,17,29.60
2006,07,24,14,18,29.60
2006,07,24,14,19,29.70
2006,07,24,14,20,29.80
2006,07,24,14,21,30.00
2006,07,24,14,22,29.80
2006,07,24,14,23,29.90
2006,07,24,14,24,30.00
2006,07,24,14,25,30.10
2006,07,24,14,26,30.20
2006,07,24,14,27,30.20
2006,07,24,14,28,30.00
2006,07,24,14,29,29.90
2006,07,24,14,30,29.80
2006,07,24,14,31,29.80
2006,07,24,14,32,29.80
2006,07,24,14,33,29.80
2006,07,24,14,34,29.80
2006,07,24,14,35,29.90
2006,07,24,14,36,30.00
2006,07,24,14,37,30.00
2006,07,24,14,38,30.10
2006,07,24,14,39,30.20
2006,07,24,14,40,30.20
2006,07,24,14,41,30.20
2006,07,24,14,42,30.30
2006,07,24,14,43,30.30
2006,07,24,14,44,30.30
2006,07,24,14,45,30.30
2006,07,24,14,46,30.20
2006,07,24,14,47,30.30
2006,07,24,14,48,30.20
2006,07,24,14,49,30.10
2006,07,24,14,50,30.00
2006,07,24,14,51,29.90
2006,07,24,14,52,29.90
2006,07,24,14,53,29.90
2006,07,24,14,54,29.90
2006,07,24,14,55,29.90
2006,07,24,14,56,29.90
2006,07,24,14,57,29.80
2006,07,24,14,58,29.80
2006,07,24,14,59,29.70
2006,07,24,15,00,29.70
2006,07,24,15,01,29.70
2006,07,24,15,02,29.70
2006,07,24,15,03,29.70
2006,07,24,15,04,29.80
2006,07,24,15,05,29.90
2006,07,24,15,06,30.00
2006,07,24,15,07,30.10
2006,07,24,15,08,30.10
2006,07,24,15,09,30.20
2006,07,24,15,10,30.30
2006,07,24,15,11,30.20
2006,07,24,15,12,30.00
2006,07,24,15,13,30.00
2006,07,24,15,14,30.00
2006,07,24,15,15,29.90
2006,07,24,15,16,29.80
2006,07,24,15,17,29.70
2006,07,24,15,18,29.70
2006,07,24,15,19,29.70
2006,07,24,15,20,29.70
2006,07,24,15,21,29.50
2006,07,24,15,22,29.40
2006,07,24,15,23,29.30
2006,07,24,15,24,29.40
2006,07,24,15,25,29.40
2006,07,24,15,26,29.40
2006,07,24,15,27,29.40
2006,07,24,15,28,29.50
2006,07,24,15,29,29.60
2006,07,24,15,30,29.60
2006,07,24,15,31,29.60
2006,07,24,15,32,29.50
2006,07,24,15,33,29.50
2006,07,24,15,34,29.60
2006,07,24,15,35,29.60
2006,07,24,15,36,29.60
2006,07,24,15,37,29.70
2006,07,24,15,38,29.70
2006,07,24,15,39,29.70
2006,07,24,15,40,29.80
2006,07,24,15,41,29.90
2006,07,24,15,42,30.00
2006,07,24,15,43,29.80
2006,07,24,15,44,29.80
2006,07,24,15,45,29.70
2006,07,24,15,46,29.60
2006,07,24,15,47,29.60
2006,07,24,15,48,29.60
2006,07,24,15,49,29.60
2006,07,24,15,50,29.60
2006,07,24,15,51,29.50
2006,07,24,15,52,29.50
2006,07,24,15,53,29.40
2006,07,24,15,54,29.40
2006,07,24,15,55,29.50
2006,07,24,15,56,29.50
2006,07,24,15,57,29.50
2006,07,24,15,58,29.60
2006,07,24,15,59,29.60
2006,07,24,16,00,29.70
2006,07,24,16,01,29.70
2006,07,24,16,02,29.60
2006,07,24,16,03,29.50
2006,07,24,16,04,29.50
2006,07,24,16,05,29.50
2006,07,24,16,06,29.50
2006,07,24,16,07,29.30
2006,07,24,16,08,29.20
2006,07,24,16,09,29.20
2006,07,24,16,10,29.00
2006,07,24,16,11,28.90
2006,07,24,16,12,29.00
2006,07,24,16,13,29.00
2006,07,24,16,14,29.00
2006,07,24,16,15,29.10
2006,07,24,16,16,29.00
2006,07,24,16,17,28.90
2006,07,24,16,18,28.70
2006,07,24,16,19,28.70
2006,07,24,16,20,28.60
2006,07,24,16,21,28.60
2006,07,24,16,22,28.50
2006,07,24,16,23,28.50
2006,07,24,16,24,28.40
2006,07,24,16,25,28.40
2006,07,24,16,26,28.40
2006,07,24,16,27,28.40
2006,07,24,16,28,28.30
2006,07,24,16,29,28.20
2006,07,24,16,30,28.20
2006,07,24,16,31,28.20
2006,07,24,16,32,28.20
2006,07,24,16,33,28.10
2006,07,24,16,34,28.10
2006,07,24,16,35,28.00
2006,07,24,16,36,28.00
2006,07,24,16,37,28.00
2006,07,24,16,38,27.90
2006,07,24,16,39,27.90
2006,07,24,16,40,27.80
2006,07,24,16,41,27.80
2006,07,24,16,42,27.80
2006,07,24,16,43,27.70
2006,07,24,16,44,27.70
2006,07,24,16,45,27.60
2006,07,24,16,46,27.50
2006,07,24,16,47,27.40
2006,07,24,16,48,27.40
2006,07,24,16,49,27.40
2006,07,24,16,50,27.40
2006,07,24,16,51,27.40
2006,07,24,16,52,27.30
2006,07,24,16,53,27.30
2006,07,24,16,54,27.30
2006,07,24,16,55,27.30
2006,07,24,16,56,27.30
2006,07,24,16,57,27.30
2006,07,24,16,58,27.20
2006,07,24,16,59,27.20
2006,07,24,17,00,27.20
2006,07,24,17,01,27.20
2006,07,24,17,02,27.10
2006,07,24,17,03,27.20
2006,07,24,17,04,27.10
2006,07,24,17,05,27.10
2006,07,24,17,06,27.10
2006,07,24,17,07,27.10
2006,07,24,17,08,27.10
2006,07,24,17,09,27.10
2006,07,24,17,10,27.10
2006,07,24,17,11,27.10
2006,07,24,17,12,27.10
2006,07,24,17,13,27.10
2006,07,24,17,14,27.10
2006,07,24,17,15,27.20
2006,07,24,17,16,27.20
2006,07,24,17,17,27.20
2006,07,24,17,18,27.20
2006,07,24,17,19,27.20